Regional Weather Roundup
Issued by NWS

Home | Current Version | Previous Version | Text Only | Print | Product List | Glossary Off
Versions: 1 2 3 4 5 6 7 8 9 10 11 12 13 14 15 16 17 18 19 20 21 22 23 24 25 26 27 28 29 30 31 32 33 34 35 36 37 38 39 40 41 42 43 44 45 46 47 48 49 50

000
ASUS43 KMKX 271611
RWRWI

WISCONSIN REGIONAL WEATHER ROUNDUP
NATIONAL WEATHER SERVICE MILWAUKEE/SULLIVAN WI
1100 AM CDT TUE JUN 27 2017

NOTE: "FAIR" INDICATES FEW OR NO CLOUDS BELOW 12,000 FEET WITH NO
SIGNIFICANT WEATHER AND/OR OBSTRUCTIONS TO VISIBILITY.

WIZ001-002-006>008-014>016-023>028-271700-
NORTHWEST WISCONSIN

CITY           SKY/WX    TMP DP  RH WIND       PRES   REMARKS
SUPERIOR ARPT  NOT AVBL
ASHLAND        SUNNY     69  51  52 SW10      30.02F
HAYWARD        SUNNY     67  45  45 CALM      30.05F
SIREN          SUNNY     69  44  40 W8        30.05F
CUMBERLAND     SUNNY     66  43  42 W10       30.06F
RICE LAKE      SUNNY     68  44  42 W8        30.08F
CHETEK         SUNNY     69  49  48 SW7       30.07F
LADYSMITH      SUNNY     69  46  43 W9        30.08F
EAU CLAIRE     SUNNY     70  49  47 W9        30.06F
MENOMONIE      SUNNY     70  46  42 W8        30.07F
NEW RICHMOND   SUNNY     70  42  36 SW10      30.06F
OSCEOLA        SUNNY     71  42  34 SW8       30.08F
$$

WIZ003>005-009-010-017-018-271700-
NORTH CENTRAL WISCONSIN

CITY           SKY/WX    TMP DP  RH WIND       PRES   REMARKS
MANITOWISH WTR MOSUNNY   67  47  47 NW9G17    30.04S
ARBOR VITAE    SUNNY     67  49  51 W12       30.04S
WOODRUFF       SUNNY     67  49  51 W12       30.04S
RHINELANDER    MOSUNNY   67  50  54 W12G18    30.05F
EAGLE RIVER    SUNNY     66  43  42 NW13      30.03F
LAND O LAKES   SUNNY     67  45  45 W6        30.05S
PHILLIPS       SUNNY     66  47  50 W10       30.05F
TOMAHAWK       NOT AVBL
MEDFORD        SUNNY     66  45  46 W9        30.07F
MERRILL        SUNNY     68  47  46 NW9       30.06F
$$

WIZ029-030-035-036-043>047-271700-
CENTRAL WISCONSIN

CITY           SKY/WX    TMP DP  RH WIND       PRES   REMARKS
WAUSAU         SUNNY     69  47  45 W10       30.05F
MOSINEE        MOSUNNY   70  48  46 W9        30.08F
MARSHFIELD     SUNNY     68  48  48 W12       30.08F
STEVENS POINT  SUNNY     67  46  46 W10       30.08F
WAUPACA        SUNNY     72  48  43 W7        30.08S
WAUTOMA        SUNNY     71  50  47 W10       30.09F
WISC RAPIDS    SUNNY     71  49  45 NW13      30.09F
CAMP DOUGLAS   PTSUNNY   70  50  49 W9        30.09F
$$

WIZ011>013-019>022-031-037>040-048>050-271700-
NORTHEAST WISCONSIN

CITY           SKY/WX    TMP DP  RH WIND       PRES   REMARKS
ANTIGO         SUNNY     66  51  58 W13       30.06S
SHAWANO        SUNNY     71  51  49 W5        30.04F
OCONTO         SUNNY     66  51  58 SW6       30.04S
STURGEON BAY     N/A     65  49  56 N7        30.05S
GREEN BAY      MOSUNNY   69  54  58 SW7       30.06S
MANITOWOC      SUNNY     68  49  50 W7        30.07F
APPLETON       SUNNY     66  46  48 W8        30.06F
CLINTONVILLE   SUNNY     70  46  43 W8        30.06S
OSHKOSH        SUNNY     68  49  50 W8G16     30.07F
$$

WIZ032>034-041-042-053>061-271700-
SOUTHWEST WISCONSIN

CITY           SKY/WX    TMP DP  RH WIND       PRES   REMARKS
LA CROSSE      SUNNY     75  47  36 W7        30.09F
SPARTA         SUNNY     69  49  48 W6        30.11F
VIROQUA        SUNNY     68  48  49 W8        30.12F
BOSCOBEL       SUNNY     72  48  42 SW6       30.12F
PRAIRIE DU CHI SUNNY     71  42  35 SW6       30.11F
PLATTEVILLE    SUNNY     70  48  45 SW6       30.14S
$$

WIZ056-057-062-063-064-067-068-271700-
SOUTH CENTRAL WISCONSIN

CITY           SKY/WX    TMP DP  RH WIND       PRES   REMARKS
REEDSBURG      SUNNY     69  48  46 W10G16    30.11S
BARABOO/DELLS  SUNNY     70  47  43 W9        30.11S
LONE ROCK      SUNNY     70  47  43 MISG      30.12F
MINERAL POINT  SUNNY     70  45  40 W6        30.13S
MADISON        MOSUNNY   69  47  45 VRB3      30.11F
MIDDLETON      SUNNY     70  48  45 W10G16    30.12S
WATERTOWN      NOT AVBL
MONROE         SUNNY     70  37  30 W12       30.13S
JANESVILLE     SUNNY     72  45  37 W9        30.12F
$$

WIZ051-052-058>065-066-070>072-271700-
SOUTHEAST WISCONSIN

CITY           SKY/WX    TMP DP  RH WIND       PRES   REMARKS
MILWAUKEE      MOSUNNY   72  47  40 NW14G22   30.10F
WAUKESHA       SUNNY     66  46  48 W12       30.13S
MILWAUKEE/TIMM SUNNY     70  45  40 NW12      30.11S
RACINE         SUNNY     70  47  43 NW8       30.12S
KENOSHA        SUNNY     70  48  45 NW9       30.12S
FOND DU LAC    SUNNY     71  48  43 W13       30.08F
SHEBOYGAN      SUNNY     69  51  52 NW8       30.08S
WEST BEND      SUNNY     68  46  45 W12G17    30.09F
JUNEAU         SUNNY     67  49  53 CALM      30.11S
$$

LSZ147-162-271700-
LAKE SUPERIOR

STATION/POSITION TIME  TEMP    WIND        PRES    WAVE
                       AIR SEA DIR/SP/G            HT/PER
                 (UTC) (F)     (DEG/KT/KT) (MB)    (FT/S)
W MID LAKE BUOY  1550   43 39  220/  8/ 10 1016.0F   1
DEVILS ISLAND    1600   60     230/ 11/ 13 1016.0F
SAXON HARBOR     1540   68     360/  3/  5 1016.3F
$$

LMZ867-665-643>646-271700-
LAKE MICHIGAN

STATION/POSITION TIME  TEMP    WIND        PRES    WAVE
                       AIR SEA DIR/SP/G            HT/PER
                 (UTC) (F)     (DEG/KT/KT) (MB)    (FT/S)
CHAMBERS ISLAND  1540   63     210/  7/ 10 1016.6S
S GREEN BAY BUOY 1600   62     220/  8/ 10 1017.1
N MID LAKE BUOY  1550   57 57  270/  6/  8 1017.6R   1/ 4
NORTHPORT PIER   1540   65     310/  7/ 10 1016.6S
KEWAUNEE LAKESHO 1548   66     290/  5/  8 1017.2F
SHEBOYGAN LAKESH 1600   66     280/  9/ 11 1018.2F
PORT WASHINGTON  1540   70     280/  7/ 15 1019.6F
ATWATER BUOY     1539   64 56  310/ 10/ 12 1019.2F
MILWAUKEE LAKESH 1550   67     330/ 12/ 14   N/A
S MID LAKE BUOY  1550   60 61  300/  8/  8 1019.9R   1/ 3
KENOSHA   LAKESH 1600   68     310/  9/ 15 1019.3
$$

TC  - TEMPERATURE IN CELSIUS
VSB - VISIBILITY IN STATUTE MILES
WCI - WIND CHILL INDEX
HX  - HEAT INDEX





USA.gov is the U.S. government's official web portal to all federal, state and local government web resources and services.